Wind_Speed
15 16 18 20 23 25 28 31 34 36 38 40 43 44 46 47 47 47 46 46 45 44 45 44 44 45 45 46 47 46 48 48 48 49 49 49 46 44 43 38 35 37 35 35 37 39 39 35 35 38 40 39 35 30 33 38 38 35 35 35 35 36 37 36 39 45 44 43 46 53 57 48 40 46 58 60 59 56 52 48 45 49 58 63 65
14 16 18 21 25 27 30 33 36 38 40 42 44 46 47 47 47 47 47 46 45 45 45 44 44 46 46 47 48 48 49 49 48 49 51 52 48 44 42 39 37 37 36 36 36 36 37 36 36 39 40 39 36 31 30 34 36 35 35 35 35 35 36 37 40 43 44 45 45 48 55 52 44 43 57 62 62 60 57 53 49 50 57 63 66
14 17 19 22 26 29 32 36 38 41 43 45 47 48 49 49 47 46 46 46 45 44 44 44 45 46 48 49 49 50 51 51 50 48 49 52 49 43 41 40 39 38 38 39 38 36 40 43 43 42 40 38 36 32 28 29 32 34 34 34 34 34 36 37 39 41 43 47 45 43 48 51 46 44 56 63 63 61 56 53 53 56 61 65 66
15 18 21 24 27 31 35 38 40 43 45 48 50 50 50 49 47 46 46 46 45 44 44 45 46 48 49 51 50 51 52 51 51 48 47 50 49 44 42 42 41 41 40 40 41 41 43 46 43 40 40 39 36 32 27 25 28 31 32 33 33 34 35 36 38 39 41 46 45 42 44 47 46 45 57 63 62 61 56 53 56 59 63 66 66
16 19 22 25 29 33 36 40 43 45 47 50 51 51 50 49 47 46 46 45 45 45 45 46 48 49 51 52 51 51 52 51 50 49 47 48 47 44 42 41 42 43 42 42 44 44 44 46 43 38 38 39 38 34 29 26 25 28 30 31 30 31 34 36 38 39 40 44 44 42 41 43 44 44 60 66 60 58 56 57 61 62 65 67 65
17 20 24 27 31 34 38 41 44 47 49 51 51 50 49 48 47 46 45 45 45 45 45 46 48 50 50 51 50 51 51 50 48 47 47 46 44 42 40 39 40 42 42 42 44 44 43 45 43 37 38 41 40 36 32 28 25 27 31 33 31 30 33 36 38 38 41 43 43 43 40 39 42 42 57 67 62 60 59 59 63 66 68 67 63
18 22 25 29 32 36 39 42 46 48 50 50 49 49 48 47 46 45 44 44 44 45 46 47 48 49 49 49 49 49 49 48 46 45 45 42 40 39 39 38 39 41 41 42 43 42 41 43 43 39 39 42 42 39 35 31 28 28 32 33 32 30 29 32 33 34 39 43 43 44 43 43 44 40 51 65 64 64 64 61 62 64 67 67 63
20 23 27 31 34 37 40 43 47 48 49 49 48 47 46 44 44 43 42 43 44 45 47 48 48 47 47 47 47 47 46 45 43 43 41 39 37 37 37 36 36 37 38 40 40 39 39 39 40 38 38 41 42 41 37 34 30 28 30 32 32 29 27 28 29 29 33 40 42 44 45 46 48 42 48 63 63 64 67 66 64 63 63 64 64
21 24 28 32 35 38 42 44 47 48 48 48 47 45 44 43 42 42 42 43 44 45 46 46 46 46 46 45 44 43 43 42 40 38 36 35 35 37 37 37 36 36 36 37 38 39 39 40 39 37 37 40 44 45 42 39 34 31 32 34 34 33 30 29 29 28 30 36 40 43 44 46 50 47 48 62 64 64 68 68 66 64 64 65 65
22 26 29 33 36 39 42 45 46 46 46 46 44 43 42 42 42 42 42 43 44 45 46 45 45 45 44 43 41 39 39 39 37 34 32 33 35 37 39 39 40 40 39 38 39 39 40 40 39 36 34 36 41 47 47 43 41 38 36 36 37 36 34 33 33 32 33 35 37 41 45 48 52 50 51 63 66 68 70 69 67 66 65 65 63
23 27 30 33 37 40 42 44 45 45 45 43 41 41 41 41 42 41 42 43 44 44 45 45 44 43 43 41 39 39 38 37 35 33 32 33 34 36 38 38 39 41 42 42 41 41 39 38 37 36 34 33 35 41 46 45 44 42 39 39 40 38 37 37 37 36 37 38 38 38 45 53 55 52 57 67 67 70 72 70 67 66 65 65 61
23 27 31 34 37 39 41 43 44 44 42 41 40 40 40 40 41 41 41 43 43 44 44 45 45 43 41 40 38 38 39 37 34 33 33 33 33 35 36 37 38 39 40 41 42 41 40 37 37 38 36 33 31 34 39 43 43 42 40 40 41 41 41 41 41 41 41 43 42 38 42 54 58 55 62 70 68 68 71 69 69 70 69 68 67
24 27 31 34 36 39 41 42 42 41 39 39 39 39 39 39 40 40 41 42 43 44 45 45 44 41 40 38 37 36 37 36 33 33 33 33 33 34 36 37 39 39 38 40 42 42 40 37 37 38 35 31 30 31 34 37 38 39 38 39 40 41 42 42 43 44 44 46 47 42 40 50 60 61 66 73 70 68 69 69 71 74 73 72 72
24 27 30 33 36 38 40 40 39 38 37 37 38 38 38 39 39 40 42 43 43 44 44 43 42 39 38 37 36 36 37 34 33 34 35 34 34 34 36 37 39 40 39 41 44 43 41 39 38 38 34 31 30 30 30 31 33 35 37 38 40 41 42 43 45 46 46 47 50 48 41 44 57 65 69 75 75 73 73 74 75 76 76 75 73
24 27 30 33 35 37 38 37 36 35 35 36 36 36 37 38 38 40 42 42 43 42 41 41 40 38 37 36 36 37 37 34 33 34 34 33 32 33 34 36 38 38 38 40 42 42 41 40 39 39 36 33 33 31 29 28 30 32 35 38 41 44 45 48 48 47 47 47 49 52 47 41 49 62 71 77 79 79 80 81 81 78 74 70 66
24 27 30 32 34 35 35 35 34 34 34 35 35 35 36 37 38 40 42 42 41 40 39 39 38 38 37 37 37 38 38 35 33 33 32 31 30 31 34 36 37 37 36 36 37 37 38 38 38 39 38 34 33 33 31 29 29 30 32 35 39 43 46 49 49 47 48 47 46 49 51 45 45 55 71 81 81 81 79 75 72 69 66 62 60
23 27 30 32 33 33 33 32 32 32 33 34 34 34 35 36 38 40 41 41 41 40 39 39 38 38 38 38 38 39 39 36 32 29 28 28 29 30 32 33 33 34 35 35 35 35 37 38 38 39 38 34 31 31 30 30 31 32 32 34 38 43 47 49 50 49 48 46 44 45 50 51 48 51 69 82 82 79 73 65 65 67 66 63 59
24 27 29 30 31 31 30 30 31 31 31 32 33 33 35 36 37 38 39 40 40 39 40 40 40 39 38 38 38 37 37 34 28 24 24 26 29 31 32 32 33 34 35 35 34 34 34 36 37 37 38 36 33 32 32 31 32 33 34 35 38 44 48 48 49 50 47 43 42 44 49 54 52 52 67 81 80 78 74 71 73 74 71 67 64
24 27 28 29 29 29 29 28 29 30 30 30 31 32 34 35 37 37 37 38 39 40 40 41 42 41 40 39 38 36 34 31 28 26 27 29 30 31 32 32 32 31 32 34 34 34 33 33 33 34 36 36 35 35 34 33 33 34 35 36 40 46 49 46 47 49 48 44 41 40 45 54 54 54 67 79 80 80 80 80 82 78 73 72 70
24 26 26 26 26 26 26 26 27 28 29 29 30 31 33 35 36 36 37 37 38 40 40 41 43 43 42 40 38 35 32 31 30 29 30 31 30 30 30 31 31 31 31 34 35 34 34 33 32 32 33 34 35 35 34 33 33 33 34 37 43 48 47 44 46 49 49 48 43 35 38 51 55 58 69 78 79 81 82 82 84 82 77 73 70
23 24 24 24 24 24 24 25 25 26 28 29 29 30 31 33 35 36 36 37 38 40 41 42 43 44 42 40 38 37 33 30 31 33 32 31 30 29 30 31 32 32 33 34 33 31 30 31 31 29 29 31 32 32 32 32 31 32 35 38 42 44 42 41 46 48 48 48 42 31 34 47 55 61 71 77 77 80 81 81 82 83 82 77 73
22 22 22 22 22 22 22 23 24 25 27 28 29 29 30 32 33 34 36 37 39 40 42 43 43 44 43 40 39 38 34 30 32 35 34 31 30 30 31 32 32 32 33 34 33 31 28 28 29 28 27 28 31 32 32 32 31 33 36 36 36 37 36 38 41 43 44 45 37 27 32 46 55 62 70 75 76 76 78 80 81 81 82 83 82
20 20 20 21 20 20 21 21 23 24 26 27 28 29 30 31 33 34 35 37 39 41 43 43 43 43 43 42 42 40 36 35 37 37 33 31 31 32 32 33 32 32 33 34 34 32 30 28 28 26 24 25 28 30 32 32 31 33 33 32 31 31 31 32 35 37 40 39 31 25 34 48 57 61 67 73 75 75 76 78 79 79 79 82 85
18 18 19 19 18 18 19 20 22 23 24 26 27 28 29 31 32 33 35 36 38 41 43 43 43 42 42 45 46 42 39 41 41 36 32 32 34 33 33 34 33 33 33 33 33 32 29 28 27 25 23 23 24 26 28 30 31 31 29 28 28 28 28 30 33 34 37 34 27 24 38 52 59 63 68 72 76 77 77 77 77 76 76 77 77
16 17 18 18 17 16 17 19 21 22 23 24 26 28 29 30 32 34 35 35 36 40 42 42 42 42 42 45 46 44 44 46 43 36 34 37 36 35 35 35 35 34 34 32 30 28 27 26 26 24 22 22 23 23 26 28 29 28 26 25 25 25 26 28 30 32 33 31 25 26 42 56 61 67 73 75 76 77 75 74 73 71 69 67 65
14 15 16 16 16 16 16 18 19 20 21 22 23 25 27 29 31 33 34 34 34 36 39 40 41 42 43 45 46 47 49 49 44 39 41 44 42 39 39 38 37 36 34 30 26 24 23 23 24 22 19 18 20 21 22 23 24 24 23 23 24 23 24 26 28 30 31 28 25 30 44 57 63 68 71 72 73 73 71 71 71 68 66 65 62
13 14 15 14 14 15 16 18 18 19 20 22 23 24 25 27 29 31 33 34 34 34 35 37 39 42 43 44 46 48 49 48 46 45 46 46 45 44 42 41 40 38 34 29 25 22 20 20 21 20 16 14 15 17 18 19 21 21 20 21 22 23 25 27 28 30 30 26 26 33 44 51 57 62 65 67 70 71 71 72 72 68 65 63 61
12 13 13 13 13 14 16 18 18 18 19 20 23 25 26 26 27 28 30 31 31 31 33 34 36 39 41 42 45 48 49 48 46 46 45 44 43 43 41 40 40 37 33 32 30 24 19 17 17 17 15 11 11 14 17 19 22 23 22 22 22 22 25 26 26 28 28 24 24 34 42 43 46 55 61 65 69 71 70 71 72 69 63 60 58
12 12 11 11 12 14 16 17 18 18 18 18 19 22 25 27 27 26 26 27 27 26 28 31 33 35 37 39 42 45 47 46 44 43 41 40 39 39 37 35 34 32 32 34 31 23 18 16 15 14 13 12 11 12 13 16 20 22 23 23 22 21 22 23 22 24 24 22 24 35 42 41 43 52 59 62 66 70 70 70 71 68 64 61 60
11 11 10 10 11 13 15 16 17 18 19 18 18 18 19 21 24 26 25 24 24 24 24 25 27 30 33 35 38 39 41 41 41 41 40 38 37 34 30 26 27 28 30 27 19 12 11 13 12 12 13 14 14 13 13 14 17 19 21 21 20 20 21 21 21 21 22 23 29 39 45 45 46 52 57 61 63 66 69 70 70 68 65 63 62
10 9 9 10 11 12 14 15 16 17 18 20 20 20 19 19 21 23 24 23 23 24 25 25 26 28 30 32 36 38 37 38 39 40 39 37 35 31 23 21 25 26 23 17 9 7 8 8 6 7 9 11 12 13 13 15 17 19 20 20 19 19 20 21 21 20 21 26 33 41 45 48 50 54 58 63 63 64 65 67 68 68 67 66 63
9 8 8 9 10 12 14 15 16 16 18 19 21 23 24 23 23 23 23 24 25 27 28 28 30 32 32 32 35 38 38 38 39 39 37 34 31 26 20 20 26 25 16 10 10 13 14 13 10 8 7 8 9 10 12 14 16 19 21 21 20 19 20 21 20 19 22 28 36 41 44 48 52 55 59 63 63 62 62 61 64 68 68 66 64
7 7 7 8 10 12 13 15 16 16 18 20 21 23 26 28 28 27 26 25 25 26 28 30 31 34 36 36 36 37 37 37 39 39 37 32 29 28 24 22 23 23 18 15 19 22 21 20 18 15 13 12 12 11 12 13 15 17 19 21 22 20 19 19 19 19 23 30 37 42 45 49 52 54 58 61 62 62 62 61 63 65 65 62 61
6 5 6 8 10 11 13 14 15 16 17 19 20 22 24 27 29 30 31 31 30 29 29 31 32 34 37 39 39 38 38 38 39 39 38 34 30 31 29 21 17 19 22 25 29 30 28 26 24 21 18 17 16 14 13 13 14 15 16 19 21 21 19 18 18 19 23 31 37 41 45 48 51 52 55 58 60 61 62 62 61 61 61 59 58
5 4 5 7 9 11 12 13 14 15 17 18 20 22 24 25 27 28 30 32 34 34 34 34 34 35 37 39 40 39 40 41 41 41 41 39 34 31 31 30 28 28 31 32 33 34 34 32 30 27 24 22 21 19 16 14 14 14 15 16 18 19 18 17 17 18 23 32 38 41 44 48 51 52 54 56 57 59 61 62 61 61 62 60 57
4 3 5 7 8 10 11 12 13 14 16 17 19 21 23 24 25 26 27 29 31 33 34 35 35 34 34 37 39 39 39 42 43 42 42 42 39 36 38 42 43 42 41 39 38 37 36 35 33 30 27 26 24 22 19 17 15 14 14 15 16 17 17 16 16 17 23 32 38 41 44 48 51 53 54 54 56 59 61 62 62 62 62 60 57
3 2 4 5 7 9 10 11 12 14 15 16 18 20 21 23 24 25 26 28 29 31 33 35 36 36 36 39 41 40 39 40 41 42 41 41 41 42 44 46 46 45 45 45 43 41 39 38 36 34 32 29 26 24 22 19 17 15 13 13 14 15 16 16 16 17 23 32 38 40 44 47 50 52 54 55 56 58 60 61 61 60 60 60 58
2 1 3 4 6 7 8 9 11 13 14 15 17 19 20 22 23 24 25 26 28 30 31 34 36 37 39 41 42 40 39 40 42 45 46 46 46 46 46 46 46 46 46 46 45 44 44 42 40 38 36 33 30 28 25 22 19 17 15 13 12 13 14 15 15 16 21 29 36 39 43 46 48 51 54 55 57 58 58 59 60 58 57 57 57
2 0 2 3 5 6 7 8 10 11 13 15 17 19 20 21 22 23 24 25 26 28 30 31 33 34 36 39 40 40 41 44 47 48 49 49 48 47 47 46 47 47 46 46 46 45 45 44 43 41 39 37 34 32 29 26 22 19 16 14 11 10 11 12 13 15 19 24 31 36 41 45 47 50 52 53 55 57 58 57 58 57 57 58 59
3 1 1 3 4 5 6 8 9 10 12 15 16 18 20 21 22 23 23 24 25 26 28 29 30 31 33 35 37 38 41 44 46 47 47 47 47 46 46 46 47 48 47 47 46 45 45 45 45 44 42 40 38 35 33 30 26 22 18 15 12 9 9 11 12 15 19 23 27 32 38 43 46 49 51 52 53 56 58 58 59 59 59 61 61
3 1 1 2 3 4 6 8 9 11 13 15 16 17 19 20 21 21 22 23 24 25 25 26 27 28 29 30 31 34 37 40 41 42 43 44 44 44 44 45 46 47 47 47 47 46 46 46 46 46 45 43 42 40 37 34 31 27 23 18 14 10 9 12 14 16 19 23 26 29 35 41 45 48 50 51 51 53 55 57 59 59 59 60 59
4 3 2 1 2 4 5 7 9 11 13 14 15 17 17 18 19 20 20 21 22 23 24 24 25 25 27 28 28 30 34 37 39 40 41 41 42 43 44 44 45 46 46 46 46 47 46 46 47 47 47 46 45 44 43 40 37 34 29 23 18 12 8 11 15 18 20 24 27 28 32 38 43 47 49 51 50 50 51 54 57 59 59 58 56
5 3 2 1 1 3 5 7 9 10 12 13 14 15 16 17 18 18 19 20 21 22 23 24 24 25 25 26 27 29 32 35 37 38 39 41 42 43 44 44 43 44 45 46 46 46 47 47 47 47 48 47 47 46 46 45 42 39 35 29 23 16 10 8 14 19 22 25 27 29 30 35 40 45 47 48 48 49 50 51 53 56 57 57 55
6 4 3 1 1 3 5 7 8 9 11 12 13 14 15 16 16 17 18 19 20 21 22 23 24 24 25 26 27 29 32 34 36 37 37 39 40 41 42 42 42 43 44 46 47 47 47 47 48 48 49 49 48 48 47 47 45 43 40 35 29 22 14 8 8 14 20 25 28 30 30 33 38 42 45 46 47 48 49 50 52 53 54 54 54
7 5 4 2 1 3 4 6 8 9 10 11 12 13 14 15 15 16 17 18 19 20 21 22 23 24 24 25 27 28 30 32 33 34 35 37 38 40 40 41 42 43 44 45 47 48 49 49 49 50 50 50 50 50 49 48 46 45 43 40 35 28 20 13 6 7 14 21 28 32 32 33 35 39 42 45 47 48 49 50 52 52 52 52 53
7 5 4 2 1 2 4 5 7 8 9 10 11 12 12 13 14 15 16 18 19 19 20 21 22 23 23 24 25 26 27 29 31 31 33 35 37 38 38 39 40 42 43 44 46 48 49 50 50 51 51 51 51 52 51 50 48 45 43 41 38 32 24 16 10 4 5 12 20 29 34 34 35 37 40 42 45 47 49 49 50 51 51 52 54
7 5 4 2 1 2 3 4 6 7 8 9 10 11 11 13 14 15 16 17 18 19 20 20 21 22 23 23 24 24 25 27 28 29 30 32 34 36 37 37 38 40 41 42 45 48 50 51 51 51 51 51 51 52 52 52 50 47 43 41 39 34 28 20 12 6 2 3 10 20 30 34 35 35 37 39 41 43 45 46 47 48 49 51 52
7 6 4 2 1 2 3 4 5 6 7 8 9 10 11 12 13 14 15 16 17 18 19 20 21 21 22 22 22 23 23 24 25 26 27 29 31 33 35 36 37 38 39 41 44 47 49 51 51 52 52 52 52 51 51 52 51 49 46 42 39 35 30 24 17 11 6 3 5 12 21 28 31 32 34 36 38 41 42 42 43 45 46 46 48
7 6 5 3 2 1 2 3 4 5 6 7 8 9 10 11 12 13 15 16 17 18 19 19 20 21 21 21 22 22 22 22 23 24 25 27 28 30 32 34 35 36 38 40 42 45 48 50 51 52 53 53 52 51 51 50 50 50 48 44 39 35 32 28 23 17 11 7 7 10 14 20 25 28 30 31 33 36 39 39 40 41 42 42 43
8 6 5 4 3 1 1 2 3 4 6 7 8 8 9 10 11 12 14 15 16 17 18 19 20 20 21 21 22 22 22 22 23 23 23 24 25 27 29 31 33 35 37 38 39 42 46 48 50 52 53 53 52 51 51 50 48 48 47 45 42 37 34 32 28 22 16 12 11 11 12 16 19 23 25 26 28 31 33 35 36 37 38 40 40
8 7 5 4 3 2 1 1 2 4 5 6 7 7 8 9 11 12 13 15 16 17 18 19 19 20 20 21 21 22 22 22 22 22 22 23 24 25 26 29 31 33 34 35 36 38 42 45 48 50 51 53 53 52 50 49 47 45 44 44 44 41 37 34 31 28 23 18 15 13 12 13 16 18 20 21 23 26 28 30 31 32 34 36 37
Wind_Direction
315 322 328 333 335 336 336 334 333 332 331 330 328 326 324 322 320 318 316 316 315 313 312 312 312 311 309 308 307 305 303 300 297 294 292 292 289 284 280 272 266 266 265 266 267 271 273 271 272 266 255 257 263 264 264 255 249 254 258 261 263 259 258 262 262 265 265 256 250 249 247 252 258 236 220 220 220 213 208 207 202 192 183 180 179
316 324 330 334 336 337 336 334 334 332 331 330 328 327 325 323 321 318 317 316 315 314 314 313 313 311 309 307 305 303 301 298 295 292 290 293 291 284 278 272 266 264 264 266 269 273 271 265 264 264 256 254 259 264 264 255 248 253 257 256 258 258 256 257 258 259 264 259 250 250 249 252 259 239 216 216 217 210 206 210 212 208 199 192 188
317 324 329 334 335 336 336 334 333 332 331 330 329 328 326 324 322 319 317 317 316 316 316 314 313 310 307 305 303 301 299 297 294 291 288 291 293 286 279 272 266 264 264 267 268 270 271 268 266 266 261 254 255 260 261 253 248 251 257 257 255 255 254 253 254 254 259 260 252 250 250 251 260 243 215 213 215 207 203 206 209 209 203 196 192
316 322 328 332 334 334 335 334 333 332 331 330 329 328 326 324 323 321 320 319 319 318 317 315 312 309 305 303 301 299 297 295 294 292 287 288 291 287 280 273 268 265 265 267 270 271 274 275 273 270 265 257 252 256 258 252 248 249 255 257 254 256 255 252 253 251 256 260 254 252 250 250 259 243 212 209 212 206 203 202 204 205 199 194 191
316 322 326 329 332 333 334 333 332 332 331 330 329 328 327 326 325 324 323 322 321 320 318 314 310 307 304 302 299 297 296 294 294 293 290 288 288 285 280 274 269 268 268 269 272 275 276 277 277 273 268 260 251 252 257 254 247 244 249 255 255 256 255 254 256 252 254 259 255 252 250 250 259 240 208 204 206 201 199 198 198 199 193 190 188
316 323 326 328 331 333 333 333 332 331 330 330 329 328 328 327 326 326 325 324 322 320 316 312 309 306 304 302 299 298 297 296 295 293 290 288 287 285 282 278 274 273 273 273 275 277 277 278 279 274 267 260 252 250 254 256 249 240 243 251 253 255 256 256 258 257 255 257 254 251 248 248 255 237 204 198 198 191 189 189 189 189 187 185 184
318 323 326 329 332 332 332 333 332 331 331 330 330 329 328 328 327 327 326 324 321 318 315 311 309 307 305 304 302 300 298 296 294 292 290 288 288 286 284 281 279 277 278 278 278 279 278 277 278 274 266 260 253 249 251 254 251 240 241 248 250 254 259 256 258 260 258 256 252 248 246 245 250 236 200 192 192 186 183 179 175 177 180 181 181
320 324 328 330 332 332 332 332 331 332 332 331 330 329 328 328 327 327 327 323 320 317 314 312 310 309 307 305 303 300 298 296 295 293 291 292 292 290 288 285 283 281 281 282 281 282 281 280 279 273 265 259 252 247 247 250 250 245 245 248 248 250 255 253 254 258 257 255 249 246 244 244 248 237 199 185 183 181 181 178 171 171 176 179 181
322 326 329 330 331 331 332 332 332 333 332 331 330 329 329 329 329 329 327 323 319 317 315 313 313 311 309 307 304 302 300 300 299 295 291 291 291 291 291 290 289 288 287 287 286 285 285 286 284 274 264 260 252 245 243 244 246 247 248 249 248 248 252 254 257 261 261 256 248 243 242 241 245 237 201 182 179 178 179 177 172 172 177 179 182
323 327 329 330 330 331 332 333 333 333 331 330 330 330 331 331 331 330 327 323 320 318 318 317 316 315 313 311 310 307 304 303 301 295 287 284 285 284 285 285 285 287 287 289 290 290 288 287 286 279 268 263 255 247 243 243 244 245 247 248 249 249 253 258 262 266 269 264 254 245 239 237 241 233 202 183 181 178 176 175 172 172 175 174 177
325 327 328 329 329 331 333 334 333 332 331 331 331 333 334 334 332 330 327 324 323 322 322 322 321 321 319 317 315 311 307 305 301 293 286 283 281 280 280 278 278 280 282 284 286 288 287 282 280 278 272 266 259 248 244 244 245 246 246 246 249 251 252 256 261 265 269 270 263 251 238 233 236 228 201 186 182 178 175 174 173 171 171 170 171
325 326 327 328 329 332 334 333 332 331 331 333 335 336 337 335 333 331 328 328 327 328 328 328 328 328 325 319 312 307 304 303 299 292 288 286 283 281 280 279 277 277 278 279 280 282 281 276 274 276 270 263 262 254 246 246 248 248 247 247 248 251 251 254 259 263 266 270 268 258 242 233 231 221 199 187 182 178 175 175 174 173 173 173 174
324 325 326 327 330 333 332 331 331 331 333 336 338 338 338 337 335 333 332 332 333 333 334 334 332 330 325 318 310 304 303 300 297 295 293 289 286 284 283 282 280 278 277 276 277 279 278 274 273 275 269 259 260 260 251 248 249 249 248 248 249 251 252 255 259 261 263 267 267 260 246 233 226 215 198 187 183 178 176 176 176 176 176 176 178
322 324 325 328 331 331 330 329 330 332 335 338 339 339 339 339 338 337 336 338 338 338 338 336 333 329 324 318 310 306 307 303 299 298 297 293 289 287 286 285 283 282 281 279 278 278 276 272 270 272 269 258 257 263 258 251 251 251 249 248 248 249 250 252 257 260 261 264 263 257 247 234 225 213 197 188 184 180 178 179 179 180 180 180 181
321 322 325 329 330 329 328 329 331 335 338 340 341 341 341 342 342 341 341 343 342 341 339 336 334 330 326 320 313 309 310 309 303 301 299 297 294 291 289 287 286 286 285 282 279 276 274 272 268 267 266 258 252 256 257 254 254 254 251 250 250 250 251 253 257 260 260 260 259 256 249 239 228 214 197 188 186 185 184 184 182 181 181 179 178
319 322 326 329 329 328 328 330 333 337 339 340 342 344 344 345 346 345 345 346 345 343 340 337 335 333 329 325 321 318 318 315 310 306 303 300 299 298 297 294 291 290 288 284 279 275 271 269 265 263 262 258 252 251 253 255 257 257 254 252 252 254 255 257 259 262 262 258 256 255 251 243 234 217 199 190 188 187 185 182 179 176 175 172 173
318 324 328 329 329 329 330 333 336 339 341 341 344 347 347 348 349 348 348 348 347 345 342 339 337 335 332 330 327 324 322 319 314 309 306 304 303 303 302 300 296 296 295 290 283 280 275 269 264 262 259 256 254 254 253 255 257 257 256 254 254 256 258 261 262 263 264 259 254 256 252 242 237 223 202 192 190 187 181 175 173 174 174 171 172
320 327 329 329 329 330 332 336 338 340 342 345 348 350 351 351 351 351 350 349 349 347 344 341 340 338 335 333 331 325 321 322 325 322 316 312 309 307 307 305 301 302 305 300 289 283 281 272 263 261 259 254 253 254 253 254 257 257 256 255 256 258 259 262 265 265 265 262 258 260 252 237 234 226 205 192 189 186 181 177 178 178 175 174 175
325 329 330 330 330 331 334 338 340 341 344 348 352 354 354 353 353 353 352 352 351 349 347 344 341 340 337 336 334 329 325 330 338 333 321 313 310 308 308 308 305 304 309 310 298 287 284 277 266 261 260 256 253 252 252 254 255 255 255 255 255 257 259 262 266 267 267 266 266 265 249 232 229 223 204 191 188 188 187 185 183 180 177 178 178
329 330 330 330 330 332 336 339 342 344 346 351 356 358 355 354 354 355 355 355 353 352 350 346 342 341 339 336 335 334 334 337 336 326 316 312 312 311 310 310 310 308 309 312 307 297 292 287 277 267 261 256 253 253 251 251 251 253 255 254 254 257 260 263 266 268 269 270 272 267 242 227 223 215 199 189 187 188 189 188 186 183 181 179 178
330 329 330 330 331 334 338 341 345 348 349 352 358 0 358 356 356 358 358 357 355 354 352 349 344 341 340 337 335 337 337 331 324 320 319 317 315 314 312 310 310 310 308 307 307 303 299 296 290 282 270 260 255 253 251 250 250 251 253 252 253 258 262 264 266 268 269 270 272 263 236 222 216 205 192 185 185 187 187 188 186 185 185 182 180
329 329 329 328 331 336 341 344 349 352 352 355 359 1 0 358 358 0 1 360 358 356 354 350 344 341 341 340 339 338 333 322 319 322 323 320 316 313 312 310 308 307 307 305 301 296 292 290 290 288 281 270 261 257 255 254 253 253 253 254 255 257 260 263 266 268 268 270 270 258 232 218 207 195 186 183 184 184 185 186 187 187 188 189 189
328 328 326 327 333 339 344 349 355 356 355 357 0 3 2 360 359 2 4 3 1 358 355 350 345 342 343 343 342 339 332 324 324 325 321 318 317 314 312 310 308 306 305 303 299 292 286 283 281 280 282 278 269 261 258 256 254 254 255 257 256 254 255 259 263 266 268 269 269 252 225 210 199 189 183 181 182 184 185 186 186 187 189 192 195
326 325 323 327 335 342 348 355 359 0 359 358 1 5 5 2 0 3 7 7 3 359 355 350 346 343 342 343 344 340 334 331 329 325 320 318 317 315 313 311 309 307 304 299 295 291 286 281 278 275 276 278 272 264 260 257 255 255 255 256 253 249 249 253 258 264 267 267 265 241 212 200 193 187 184 183 183 184 186 187 187 188 190 192 193
323 321 321 326 337 346 354 2 4 3 2 0 2 6 8 6 3 4 8 9 6 0 354 349 346 343 341 343 344 340 337 337 333 326 325 327 323 317 315 312 310 310 308 301 296 292 286 280 277 275 275 277 273 264 257 254 254 254 252 249 245 241 243 249 255 262 263 260 256 230 203 194 191 188 186 185 184 184 185 185 185 187 190 190 190
320 318 319 327 339 349 359 9 11 7 4 3 4 7 10 9 7 7 8 10 9 2 353 348 347 345 343 344 344 341 339 340 337 332 334 336 330 323 319 316 315 316 313 306 299 291 282 275 274 274 277 276 268 257 250 250 252 252 245 238 234 235 241 247 251 256 256 253 246 224 201 192 191 189 187 185 185 184 183 183 183 186 188 188 188
316 316 321 330 342 351 3 13 15 12 9 5 4 7 9 10 11 11 9 9 8 1 353 349 348 346 344 346 346 342 340 339 338 338 339 337 331 326 325 323 323 323 322 316 308 294 278 267 267 271 275 273 263 254 250 248 248 247 240 233 232 236 241 243 247 250 249 249 242 223 203 193 190 189 186 186 186 185 185 184 184 185 186 186 185
313 314 322 334 344 356 7 12 13 16 16 12 7 5 5 10 15 14 11 10 8 359 350 350 351 347 344 347 346 343 341 341 341 341 339 335 331 329 328 327 328 328 325 318 309 296 277 264 262 266 269 272 270 262 257 254 250 248 247 243 241 244 245 246 250 249 244 243 238 220 205 197 190 186 185 186 187 186 186 186 186 186 184 183 183
310 314 325 338 349 1 10 11 10 12 17 22 21 12 6 7 12 14 13 12 11 4 352 349 350 347 346 349 349 344 341 341 341 340 338 337 336 334 330 332 334 330 320 314 309 300 286 273 266 267 270 275 280 275 269 266 259 255 254 250 249 253 253 252 256 249 236 232 226 212 203 197 191 186 185 185 186 186 187 187 187 186 184 184 184
307 314 327 341 354 7 13 12 10 8 10 18 27 27 21 14 11 13 15 15 16 16 7 357 354 350 349 352 352 347 343 341 342 342 343 344 343 339 337 341 342 333 323 322 324 324 316 303 291 292 294 293 293 290 286 286 279 270 265 259 257 261 261 260 261 252 234 222 215 206 199 195 191 188 186 185 185 186 187 187 187 186 185 185 186
301 310 328 345 358 10 14 13 12 10 9 12 16 22 28 27 20 18 18 16 17 20 18 16 14 8 1 356 354 352 350 349 349 351 351 351 351 349 348 354 357 350 342 343 6 41 26 357 336 322 311 303 302 299 295 296 294 288 281 275 270 269 269 268 267 255 233 218 211 203 196 192 190 188 187 186 185 185 186 186 187 187 187 187 188
296 309 331 349 1 11 15 13 12 12 12 13 14 15 17 20 22 23 21 20 21 21 21 22 24 23 19 9 360 358 360 358 357 359 360 0 4 6 7 14 14 6 354 352 25 42 37 25 16 3 336 319 313 304 296 296 298 295 290 285 280 275 274 275 272 254 228 214 208 201 195 191 189 188 188 187 186 185 184 184 185 186 188 189 189
294 313 336 353 5 14 15 13 13 13 12 14 17 16 15 14 15 16 18 21 24 26 26 25 24 27 28 21 12 11 12 8 5 7 9 11 20 25 25 28 26 18 13 22 32 34 31 24 18 12 0 349 338 320 303 295 292 291 290 289 287 283 280 279 275 256 229 214 206 200 195 192 189 187 187 188 187 185 184 184 185 186 187 188 189
295 319 344 358 9 16 17 15 15 15 15 17 19 18 18 17 14 12 12 14 18 23 27 28 27 28 30 28 22 23 25 21 16 16 16 18 25 30 31 35 36 30 31 37 36 32 29 26 22 17 10 4 357 345 328 310 296 290 289 288 288 290 287 279 272 257 233 215 206 200 195 192 190 187 186 187 187 185 185 185 185 185 186 187 187
297 327 353 5 13 18 19 19 18 17 17 19 20 18 19 19 18 16 14 13 15 18 21 25 28 28 30 31 28 26 28 29 26 25 25 23 24 28 32 35 35 34 36 37 35 32 30 27 24 21 16 12 9 2 352 337 317 302 293 286 283 286 285 277 267 254 232 214 205 200 196 193 191 189 187 186 186 185 186 186 186 187 188 188 187
302 339 3 13 18 21 21 19 20 21 20 19 20 19 19 18 18 18 18 16 17 18 18 21 25 27 29 32 30 27 29 32 30 29 29 29 28 31 34 34 32 32 33 34 32 30 28 26 25 23 19 15 12 8 2 351 336 318 300 287 280 277 276 270 262 249 229 214 205 200 197 195 193 192 190 189 188 188 188 188 188 189 189 189 188
296 343 16 22 22 24 25 21 20 21 20 19 19 18 18 19 18 18 18 17 18 20 19 20 21 23 26 30 29 25 27 31 31 30 30 30 31 34 36 35 31 28 29 30 29 27 25 25 24 22 20 16 12 9 6 358 346 331 311 290 275 269 267 264 260 247 227 214 207 201 198 196 195 193 192 191 191 191 191 190 190 191 191 190 189
262 340 31 32 30 31 29 24 22 20 17 17 18 18 17 18 18 18 19 19 20 20 21 22 22 22 25 28 26 22 23 26 29 29 28 29 30 32 34 35 34 29 26 25 26 25 23 23 23 22 21 19 15 12 10 5 355 342 325 303 279 263 258 258 257 249 228 213 207 204 200 197 195 194 193 193 192 192 192 192 191 191 191 190 190
229 174 45 38 41 41 33 26 24 21 16 15 17 17 17 17 17 19 20 20 21 22 23 25 25 25 27 27 23 20 24 27 28 28 27 28 30 31 31 34 35 32 26 25 25 25 23 22 22 22 21 21 19 17 15 12 6 355 339 320 297 266 248 244 247 249 235 217 208 205 202 199 197 195 194 194 194 193 192 192 192 192 191 191 192
209 162 70 50 48 45 34 27 23 17 16 17 16 15 16 17 17 18 19 21 24 25 25 26 27 27 30 31 26 23 27 31 31 29 28 28 29 31 31 33 35 33 28 25 25 25 23 22 22 22 22 22 21 20 19 18 15 10 358 340 320 287 250 232 229 234 232 223 214 208 204 202 199 198 196 196 196 195 194 194 193 194 194 194 195
198 170 104 68 55 43 30 23 18 14 15 16 15 16 17 17 17 18 19 21 25 27 27 29 29 27 31 34 32 29 32 34 33 32 31 30 30 32 33 34 36 36 31 26 25 26 25 23 22 22 22 23 23 23 22 22 21 18 13 1 342 311 264 235 224 222 222 220 217 213 209 205 202 200 199 199 198 197 196 196 195 195 196 196 196
199 180 150 91 50 36 23 16 16 15 14 15 15 16 17 17 17 18 19 22 26 28 29 30 31 29 31 33 32 31 34 36 36 34 32 31 31 33 34 34 36 37 35 30 26 26 26 25 24 23 22 23 24 24 23 23 23 21 20 15 3 344 300 249 229 221 219 218 216 214 212 208 206 204 203 202 200 199 198 197 196 197 197 197 196
201 186 165 146 36 24 17 15 17 16 14 15 16 16 16 17 18 19 21 24 26 29 30 30 30 30 31 32 32 33 35 37 37 36 34 33 33 33 33 34 36 38 39 36 32 29 28 28 26 25 24 25 25 25 24 23 23 22 21 20 16 7 345 284 244 230 224 220 216 214 213 210 208 207 206 203 202 201 200 199 198 198 198 198 196
196 189 183 190 356 12 13 14 17 17 16 18 18 16 17 19 19 21 25 28 29 30 31 31 30 30 30 31 32 33 35 37 38 37 36 35 34 34 33 34 36 38 39 40 37 33 30 30 29 27 27 27 28 27 26 25 24 24 23 22 19 17 12 346 278 246 235 227 220 216 214 213 211 209 206 205 203 202 201 200 200 199 198 198 197
194 192 195 213 330 9 11 12 16 18 19 20 20 18 18 20 21 24 27 30 32 33 33 33 33 32 32 32 33 34 35 37 38 39 38 36 35 34 33 34 36 37 38 40 39 36 32 32 31 29 27 28 29 29 28 27 26 26 26 24 22 20 19 15 351 278 250 237 227 220 215 214 213 210 208 206 205 203 202 202 202 201 200 199 199
196 196 199 213 311 359 5 10 17 22 23 23 23 22 21 21 23 27 30 32 34 35 35 35 36 35 33 34 34 34 35 37 38 39 38 36 34 33 31 32 35 37 38 40 41 38 36 34 33 29 27 28 30 30 30 29 28 28 28 27 26 23 21 21 18 351 273 248 234 225 219 216 215 212 210 208 206 205 204 204 203 202 201 201 201
194 198 204 216 276 339 357 6 15 21 26 27 27 27 26 25 25 28 31 34 35 36 35 36 38 37 35 35 35 34 35 36 37 37 37 35 34 32 30 30 32 35 37 40 41 40 38 36 34 31 28 28 30 32 31 30 30 29 29 28 27 26 24 24 27 31 23 245 231 224 220 218 216 214 212 210 207 205 204 204 204 204 203 203 203
195 200 207 217 249 311 345 358 9 20 27 30 30 30 30 29 28 29 32 34 36 36 36 37 39 39 38 36 36 35 34 35 35 35 35 34 33 32 31 30 30 32 34 38 41 42 40 37 35 33 30 29 30 32 32 31 31 31 30 28 28 27 26 27 31 38 53 108 184 203 211 214 214 213 213 213 210 208 206 205 205 205 204 204 204
200 204 208 216 238 282 329 347 6 23 29 32 33 32 31 32 32 31 33 35 35 36 36 36 38 40 39 37 36 35 34 33 33 33 33 33 32 31 31 31 30 31 33 36 39 41 41 39 36 35 32 30 29 31 32 32 32 32 31 29 28 28 30 32 35 39 51 85 129 157 180 193 200 203 205 208 210 210 209 207 207 206 205 204 204
203 208 210 218 235 254 298 332 4 26 31 32 34 32 32 35 36 35 36 38 37 36 36 35 35 36 38 37 35 34 33 31 30 29 29 30 30 30 30 30 30 31 33 34 36 40 41 40 37 35 33 30 29 31 32 33 32 33 33 32 30 31 33 36 38 41 48 64 90 117 143 163 177 186 191 194 199 204 206 207 208 208 206 206 205
205 210 210 212 222 235 269 324 4 25 31 33 35 32 32 37 37 36 37 38 37 35 35 34 33 34 35 34 33 33 32 30 28 26 25 26 26 26 28 28 29 30 32 32 34 38 42 41 39 37 34 31 28 28 31 33 33 33 34 35 34 34 36 38 41 44 48 55 67 84 107 133 151 162 170 177 184 191 196 200 203 205 205 206 208
Height
1435 1434 1433 1431 1430 1429 1428 1426 1424 1421 1419 1416 1413 1410 1407 1404 1400 1396 1393 1390 1387 1383 1379 1376 1373 1369 1365 1362 1359 1355 1352 1348 1345 1342 1339 1337 1335 1333 1332 1333 1331 1329 1329 1327 1326 1324 1323 1321 1320 1319 1320 1320 1320 1319 1319 1321 1322 1322 1323 1323 1324 1324 1324 1324 1319 1311 1311 1318 1321 1321 1323 1327 1328 1328 1328 1328 1333 1340 1344 1348 1352 1355 1360 1365 1369
1432 1431 1429 1428 1427 1426 1424 1422 1420 1417 1415 1412 1409 1406 1403 1400 1396 1392 1388 1385 1381 1378 1374 1371 1367 1364 1360 1356 1353 1350 1346 1343 1340 1336 1332 1329 1328 1326 1325 1326 1324 1323 1323 1321 1320 1319 1317 1315 1313 1313 1314 1315 1315 1314 1314 1315 1316 1316 1318 1319 1320 1320 1320 1320 1318 1312 1309 1312 1317 1318 1319 1322 1324 1324 1323 1322 1325 1333 1338 1344 1350 1355 1360 1364 1368
1429 1427 1426 1425 1423 1422 1420 1418 1415 1413 1410 1407 1404 1401 1398 1395 1391 1387 1383 1379 1376 1372 1369 1365 1362 1358 1354 1350 1347 1343 1340 1337 1334 1331 1327 1323 1321 1319 1318 1319 1318 1317 1316 1315 1315 1314 1311 1308 1306 1307 1309 1309 1309 1309 1308 1309 1311 1311 1312 1314 1314 1315 1316 1316 1315 1312 1308 1308 1312 1315 1315 1316 1318 1319 1319 1317 1320 1326 1331 1338 1345 1350 1356 1361 1366
1426 1424 1423 1422 1420 1418 1416 1414 1411 1408 1405 1402 1399 1396 1393 1389 1386 1382 1378 1373 1370 1366 1363 1360 1356 1352 1348 1344 1340 1337 1333 1330 1327 1324 1321 1318 1315 1313 1312 1311 1311 1310 1310 1309 1309 1308 1305 1302 1301 1302 1303 1303 1303 1303 1304 1304 1305 1306 1307 1308 1309 1310 1311 1311 1311 1310 1308 1305 1306 1309 1311 1311 1313 1315 1314 1314 1316 1319 1324 1332 1339 1345 1352 1358 1362
1422 1421 1420 1418 1417 1415 1412 1410 1406 1403 1400 1397 1394 1390 1387 1383 1380 1376 1372 1368 1364 1361 1357 1354 1350 1346 1342 1338 1334 1330 1326 1323 1320 1317 1315 1312 1309 1307 1305 1305 1304 1303 1303 1303 1303 1302 1300 1296 1296 1297 1298 1297 1297 1298 1299 1300 1300 1301 1302 1303 1304 1305 1306 1307 1306 1307 1306 1302 1301 1303 1307 1307 1309 1309 1308 1308 1311 1316 1321 1328 1334 1340 1347 1355 1360
1420 1418 1417 1415 1413 1411 1409 1406 1402 1399 1395 1392 1389 1385 1381 1378 1374 1371 1367 1363 1359 1355 1352 1349 1344 1340 1336 1332 1328 1324 1320 1316 1313 1310 1308 1305 1303 1301 1300 1299 1298 1297 1296 1296 1296 1296 1294 1291 1290 1292 1292 1291 1292 1293 1294 1296 1296 1296 1297 1298 1300 1301 1302 1302 1302 1302 1301 1299 1298 1299 1302 1304 1305 1305 1301 1300 1304 1310 1318 1325 1330 1335 1341 1349 1357
1417 1415 1414 1412 1410 1408 1405 1402 1398 1394 1391 1387 1384 1380 1377 1373 1370 1366 1363 1359 1355 1351 1347 1343 1339 1334 1330 1326 1321 1317 1313 1309 1306 1304 1301 1299 1298 1296 1294 1293 1292 1291 1290 1290 1290 1290 1289 1286 1285 1286 1286 1285 1286 1288 1290 1291 1292 1292 1292 1294 1296 1297 1297 1298 1298 1297 1296 1296 1295 1296 1298 1300 1302 1302 1297 1297 1301 1305 1310 1318 1325 1331 1337 1345 1354
1413 1412 1411 1409 1407 1404 1401 1398 1394 1391 1387 1383 1380 1376 1373 1370 1366 1363 1359 1355 1350 1346 1341 1337 1333 1328 1324 1320 1316 1312 1307 1303 1300 1298 1295 1293 1292 1291 1289 1288 1287 1286 1285 1284 1284 1283 1282 1281 1279 1279 1279 1279 1281 1283 1285 1287 1288 1288 1289 1291 1292 1293 1293 1294 1294 1294 1293 1292 1292 1292 1294 1296 1298 1300 1296 1293 1297 1301 1305 1310 1316 1324 1334 1343 1352
1410 1410 1408 1406 1403 1400 1397 1394 1391 1387 1384 1380 1377 1373 1370 1366 1362 1359 1355 1350 1346 1341 1336 1331 1327 1323 1318 1314 1310 1306 1301 1297 1295 1293 1291 1290 1288 1286 1284 1283 1282 1281 1280 1279 1278 1277 1276 1275 1273 1273 1273 1273 1274 1276 1279 1282 1284 1284 1285 1287 1288 1289 1290 1290 1289 1290 1290 1290 1289 1290 1292 1292 1293 1297 1293 1287 1290 1295 1302 1308 1312 1319 1330 1341 1350
1408 1407 1405 1402 1400 1397 1394 1391 1387 1384 1381 1377 1373 1369 1366 1362 1358 1354 1350 1345 1341 1336 1331 1326 1322 1317 1312 1308 1304 1300 1296 1293 1290 1290 1289 1288 1286 1284 1282 1280 1278 1277 1275 1274 1272 1271 1271 1270 1268 1267 1268 1268 1268 1270 1273 1276 1278 1280 1281 1283 1284 1284 1285 1285 1284 1285 1286 1286 1285 1287 1288 1287 1288 1292 1289 1284 1287 1291 1296 1304 1310 1317 1327 1337 1348
1404 1403 1401 1399 1396 1393 1390 1387 1384 1381 1377 1374 1370 1366 1362 1358 1353 1349 1345 1340 1336 1331 1326 1321 1316 1311 1307 1302 1299 1295 1292 1289 1287 1287 1287 1286 1285 1282 1280 1278 1276 1274 1272 1270 1268 1267 1266 1266 1264 1263 1263 1262 1263 1264 1267 1270 1272 1275 1277 1278 1279 1279 1281 1280 1279 1280 1282 1282 1281 1283 1284 1282 1283 1287 1284 1281 1285 1288 1291 1299 1306 1313 1321 1330 1340
1401 1399 1397 1395 1392 1389 1386 1384 1381 1377 1373 1370 1366 1362 1358 1354 1349 1345 1341 1336 1331 1326 1321 1316 1310 1306 1302 1298 1295 1292 1288 1286 1285 1284 1283 1282 1281 1279 1277 1275 1273 1271 1269 1267 1265 1264 1263 1261 1260 1259 1257 1257 1258 1260 1262 1264 1266 1269 1271 1273 1273 1273 1275 1275 1274 1275 1277 1277 1277 1277 1278 1277 1279 1281 1278 1276 1281 1285 1289 1295 1301 1306 1313 1321 1329
1397 1395 1393 1391 1388 1385 1382 1380 1376 1373 1370 1366 1362 1358 1354 1350 1346 1341 1336 1331 1326 1321 1316 1311 1306 1303 1300 1296 1293 1289 1285 1282 1282 1280 1279 1278 1277 1275 1273 1271 1269 1267 1266 1264 1261 1260 1259 1257 1255 1253 1252 1253 1254 1255 1257 1258 1261 1263 1265 1267 1268 1268 1268 1269 1269 1270 1272 1273 1272 1270 1270 1272 1273 1274 1272 1272 1276 1281 1286 1292 1297 1301 1307 1314 1321
1393 1391 1389 1387 1384 1381 1378 1375 1372 1369 1366 1362 1358 1355 1350 1346 1341 1336 1331 1326 1321 1316 1311 1307 1303 1300 1297 1293 1289 1285 1281 1279 1277 1276 1275 1273 1272 1271 1269 1267 1264 1262 1261 1259 1256 1255 1254 1253 1251 1249 1247 1248 1249 1251 1252 1253 1255 1257 1258 1260 1261 1261 1262 1262 1263 1266 1267 1268 1267 1262 1262 1265 1268 1269 1267 1266 1270 1273 1277 1283 1290 1296 1302 1309 1318
1389 1388 1385 1383 1380 1377 1374 1371 1368 1365 1362 1358 1355 1351 1346 1342 1337 1332 1327 1323 1318 1313 1308 1304 1300 1297 1294 1290 1286 1281 1277 1275 1273 1272 1270 1269 1268 1267 1265 1262 1260 1258 1256 1254 1251 1249 1248 1248 1246 1244 1243 1242 1243 1245 1246 1248 1250 1251 1251 1252 1253 1253 1254 1255 1258 1260 1262 1262 1260 1256 1255 1258 1261 1265 1264 1261 1264 1267 1270 1275 1282 1290 1299 1310 1319
1386 1384 1381 1379 1376 1374 1371 1368 1365 1361 1357 1354 1351 1347 1342 1338 1333 1328 1323 1319 1315 1310 1306 1302 1298 1294 1291 1288 1283 1277 1273 1271 1269 1267 1265 1265 1264 1262 1260 1257 1255 1253 1251 1249 1247 1244 1243 1241 1240 1239 1238 1237 1237 1239 1241 1243 1244 1244 1244 1244 1245 1245 1247 1249 1252 1254 1255 1255 1253 1250 1250 1250 1253 1259 1260 1256 1258 1265 1270 1276 1283 1290 1299 1310 1318
1382 1380 1378 1375 1373 1370 1367 1364 1361 1358 1354 1350 1346 1343 1338 1333 1329 1325 1320 1316 1311 1307 1303 1299 1295 1292 1288 1284 1280 1274 1269 1267 1265 1263 1262 1261 1260 1258 1256 1253 1250 1248 1245 1243 1240 1239 1237 1235 1234 1233 1232 1232 1233 1234 1237 1238 1238 1238 1237 1237 1238 1238 1239 1242 1245 1247 1247 1247 1245 1244 1244 1244 1246 1252 1254 1251 1253 1260 1267 1272 1279 1286 1294 1304 1312
1378 1376 1374 1372 1370 1367 1364 1361 1358 1354 1351 1347 1343 1339 1335 1330 1326 1322 1317 1313 1309 1304 1300 1296 1292 1289 1285 1281 1277 1273 1268 1265 1262 1260 1258 1258 1257 1255 1252 1249 1246 1243 1239 1236 1234 1232 1230 1229 1229 1228 1227 1227 1228 1230 1232 1233 1233 1232 1231 1231 1231 1231 1232 1236 1239 1239 1238 1238 1237 1236 1237 1237 1239 1244 1247 1246 1248 1254 1259 1264 1270 1278 1286 1294 1303
1374 1373 1371 1369 1367 1364 1362 1359 1356 1352 1348 1344 1340 1336 1332 1327 1323 1319 1316 1311 1306 1302 1298 1293 1288 1286 1283 1279 1275 1271 1267 1262 1259 1257 1256 1255 1254 1251 1248 1245 1242 1238 1235 1232 1229 1227 1225 1224 1224 1223 1223 1223 1224 1226 1227 1228 1228 1227 1227 1227 1225 1223 1227 1232 1234 1232 1231 1230 1230 1230 1230 1231 1234 1238 1240 1240 1243 1248 1252 1256 1262 1270 1278 1287 1295
1370 1370 1369 1367 1365 1362 1360 1357 1353 1349 1345 1341 1338 1333 1329 1325 1321 1317 1313 1309 1304 1300 1295 1290 1286 1282 1279 1276 1273 1270 1265 1260 1257 1256 1255 1252 1250 1248 1245 1241 1238 1235 1232 1229 1226 1223 1220 1219 1218 1218 1219 1219 1220 1221 1222 1223 1223 1223 1222 1221 1218 1218 1224 1228 1228 1227 1227 1225 1224 1223 1223 1224 1229 1233 1234 1234 1237 1243 1248 1253 1256 1263 1272 1282 1290
1368 1367 1366 1365 1363 1360 1358 1354 1351 1347 1342 1338 1335 1331 1327 1323 1319 1315 1311 1306 1302 1297 1293 1288 1284 1280 1277 1274 1270 1266 1263 1259 1256 1254 1251 1248 1246 1244 1242 1238 1235 1232 1229 1226 1223 1219 1216 1214 1212 1212 1213 1214 1215 1216 1216 1217 1218 1217 1216 1215 1214 1217 1221 1223 1222 1222 1223 1222 1220 1217 1215 1218 1224 1227 1227 1227 1231 1238 1244 1250 1255 1260 1266 1274 1284
1366 1365 1364 1363 1361 1358 1356 1352 1348 1344 1340 1336 1333 1329 1326 1322 1318 1313 1309 1304 1299 1295 1290 1286 1282 1278 1274 1271 1267 1264 1261 1259 1256 1251 1247 1245 1243 1241 1239 1235 1233 1230 1226 1223 1219 1216 1213 1210 1208 1207 1208 1208 1209 1210 1210 1211 1212 1211 1210 1210 1212 1214 1216 1216 1217 1217 1217 1216 1214 1210 1210 1213 1219 1221 1220 1221 1228 1234 1240 1247 1254 1259 1264 1268 1272
1363 1362 1362 1360 1359 1356 1353 1350 1346 1342 1338 1334 1331 1328 1324 1320 1316 1312 1307 1302 1297 1293 1288 1285 1281 1276 1272 1268 1265 1263 1260 1257 1253 1248 1244 1242 1240 1238 1235 1232 1229 1227 1223 1219 1215 1211 1208 1206 1204 1203 1203 1203 1203 1203 1203 1204 1205 1205 1206 1207 1208 1210 1211 1212 1212 1212 1211 1210 1207 1204 1205 1209 1213 1215 1215 1218 1224 1232 1238 1245 1252 1259 1264 1268 1271
1361 1360 1359 1358 1357 1354 1351 1347 1343 1340 1336 1333 1329 1326 1322 1318 1314 1310 1305 1301 1296 1291 1288 1284 1280 1276 1271 1266 1263 1261 1258 1254 1249 1245 1242 1239 1236 1233 1231 1227 1224 1222 1218 1215 1211 1207 1204 1201 1200 1199 1199 1199 1198 1197 1197 1198 1199 1200 1202 1203 1204 1205 1207 1207 1208 1208 1207 1204 1201 1199 1201 1204 1207 1210 1212 1216 1222 1229 1235 1243 1251 1258 1264 1268 1272
1358 1358 1357 1356 1354 1352 1349 1345 1341 1338 1335 1332 1328 1324 1321 1317 1313 1308 1304 1300 1296 1292 1288 1285 1281 1276 1271 1266 1261 1258 1255 1251 1245 1242 1239 1235 1231 1229 1226 1222 1219 1216 1212 1208 1205 1203 1200 1197 1195 1194 1194 1195 1194 1193 1192 1192 1194 1196 1198 1200 1201 1202 1203 1203 1204 1204 1202 1198 1196 1196 1197 1199 1202 1205 1208 1214 1220 1225 1232 1241 1250 1258 1264 1268 1274
1356 1356 1355 1353 1352 1350 1346 1343 1340 1337 1334 1331 1327 1324 1320 1316 1312 1308 1303 1299 1296 1293 1290 1286 1281 1277 1272 1266 1261 1256 1252 1247 1243 1239 1234 1230 1226 1223 1220 1215 1212 1209 1205 1202 1199 1198 1196 1194 1192 1191 1190 1191 1191 1191 1190 1189 1190 1192 1194 1195 1197 1198 1199 1200 1200 1199 1197 1194 1193 1193 1193 1195 1199 1203 1207 1212 1218 1223 1230 1238 1245 1252 1259 1265 1272
1354 1354 1353 1351 1350 1347 1343 1341 1339 1337 1333 1330 1326 1323 1320 1317 1312 1307 1303 1299 1296 1294 1292 1287 1282 1278 1272 1266 1260 1255 1251 1247 1242 1236 1231 1227 1223 1219 1214 1209 1204 1201 1198 1195 1193 1192 1191 1190 1188 1187 1187 1187 1188 1189 1189 1189 1189 1190 1190 1192 1193 1194 1196 1196 1195 1194 1193 1191 1190 1191 1192 1194 1197 1201 1205 1210 1216 1221 1227 1232 1239 1248 1254 1260 1267
1352 1351 1351 1349 1347 1344 1341 1339 1337 1336 1333 1329 1325 1321 1318 1316 1312 1308 1304 1300 1296 1294 1292 1288 1284 1279 1273 1267 1261 1256 1251 1246 1240 1235 1231 1227 1222 1216 1210 1205 1200 1196 1193 1190 1187 1186 1186 1186 1185 1184 1184 1184 1185 1186 1186 1187 1187 1188 1188 1188 1190 1191 1191 1191 1190 1189 1188 1188 1188 1190 1192 1194 1195 1198 1202 1207 1213 1218 1223 1229 1236 1244 1251 1257 1263
1349 1349 1348 1347 1345 1341 1339 1337 1335 1334 1332 1330 1326 1322 1318 1315 1312 1309 1306 1303 1300 1297 1294 1290 1286 1281 1276 1270 1263 1257 1251 1245 1241 1237 1232 1227 1221 1215 1209 1204 1199 1195 1190 1186 1183 1181 1182 1182 1182 1182 1181 1181 1182 1182 1182 1183 1184 1184 1185 1185 1185 1186 1185 1184 1184 1184 1184 1185 1186 1188 1190 1193 1195 1197 1200 1205 1210 1215 1220 1226 1233 1240 1247 1254 1260
1347 1347 1346 1345 1343 1340 1338 1336 1334 1332 1330 1328 1326 1324 1321 1317 1313 1309 1307 1305 1302 1299 1295 1291 1288 1283 1278 1272 1267 1262 1255 1249 1243 1237 1231 1225 1220 1214 1208 1204 1200 1193 1188 1184 1180 1178 1179 1180 1180 1180 1179 1179 1179 1179 1178 1179 1179 1179 1180 1181 1181 1180 1179 1178 1179 1180 1181 1182 1183 1184 1186 1190 1193 1196 1199 1203 1208 1213 1217 1223 1230 1236 1243 1249 1255
1344 1344 1343 1342 1340 1337 1336 1335 1333 1331 1328 1326 1324 1323 1321 1319 1315 1311 1308 1306 1302 1299 1296 1291 1287 1283 1278 1273 1268 1263 1257 1250 1244 1236 1229 1223 1217 1211 1207 1203 1199 1193 1187 1183 1179 1176 1177 1178 1178 1178 1177 1176 1176 1176 1175 1175 1175 1175 1175 1176 1175 1175 1175 1174 1175 1177 1178 1179 1181 1182 1184 1187 1190 1194 1197 1200 1204 1209 1215 1221 1226 1232 1238 1245 1251
1342 1342 1341 1340 1337 1335 1334 1333 1331 1329 1327 1324 1322 1319 1317 1315 1314 1312 1309 1306 1302 1298 1294 1290 1286 1281 1277 1273 1268 1262 1255 1249 1243 1236 1229 1223 1217 1211 1207 1203 1198 1193 1188 1183 1180 1178 1177 1176 1175 1175 1174 1174 1174 1173 1172 1172 1172 1172 1171 1171 1171 1171 1171 1172 1173 1174 1175 1176 1178 1180 1182 1185 1188 1191 1195 1198 1202 1207 1212 1218 1222 1227 1234 1242 1248
1339 1339 1338 1337 1335 1334 1333 1331 1330 1328 1325 1323 1320 1318 1315 1311 1309 1308 1307 1306 1303 1299 1294 1290 1285 1280 1275 1272 1268 1262 1255 1249 1244 1237 1230 1224 1217 1212 1208 1204 1199 1193 1187 1183 1181 1179 1177 1176 1175 1174 1173 1173 1172 1171 1170 1169 1169 1168 1168 1168 1167 1168 1169 1170 1171 1172 1173 1174 1176 1178 1180 1183 1186 1190 1194 1197 1200 1204 1209 1214 1218 1224 1231 1238 1245
1337 1337 1336 1334 1333 1333 1331 1330 1329 1326 1324 1322 1319 1317 1314 1311 1308 1306 1303 1301 1299 1297 1294 1289 1284 1279 1275 1271 1267 1261 1255 1250 1245 1239 1232 1225 1219 1213 1208 1204 1199 1193 1188 1185 1183 1181 1179 1177 1175 1174 1172 1172 1171 1170 1169 1167 1166 1165 1165 1164 1165 1166 1167 1168 1169 1170 1171 1173 1175 1176 1179 1182 1185 1189 1192 1195 1198 1202 1207 1211 1216 1222 1228 1235 1242
1334 1334 1334 1333 1332 1331 1330 1329 1327 1325 1323 1321 1319 1316 1313 1311 1309 1307 1303 1300 1297 1294 1291 1287 1283 1278 1274 1269 1265 1262 1257 1251 1246 1241 1234 1227 1221 1213 1207 1201 1198 1194 1191 1188 1186 1184 1182 1180 1177 1175 1173 1171 1170 1169 1167 1165 1164 1163 1162 1162 1162 1163 1165 1166 1167 1168 1169 1171 1173 1175 1178 1181 1184 1188 1191 1193 1196 1199 1204 1208 1213 1218 1224 1231 1237
1332 1332 1332 1331 1330 1330 1329 1328 1326 1324 1322 1320 1318 1315 1313 1311 1310 1307 1305 1302 1298 1294 1291 1287 1283 1279 1275 1270 1266 1264 1259 1253 1248 1242 1236 1230 1223 1215 1207 1203 1200 1198 1195 1192 1190 1188 1185 1183 1180 1177 1173 1171 1168 1167 1166 1164 1163 1162 1161 1161 1160 1161 1162 1163 1164 1166 1167 1169 1171 1173 1176 1179 1182 1186 1189 1192 1194 1197 1200 1205 1210 1215 1221 1227 1233
1330 1330 1330 1330 1329 1329 1328 1327 1325 1323 1321 1319 1317 1315 1313 1312 1310 1308 1305 1302 1299 1295 1292 1287 1282 1278 1273 1268 1266 1263 1259 1255 1250 1245 1238 1232 1225 1218 1212 1208 1205 1202 1199 1196 1193 1190 1188 1185 1181 1178 1174 1171 1168 1166 1165 1164 1162 1161 1160 1160 1160 1160 1161 1161 1162 1164 1166 1167 1169 1171 1174 1177 1180 1183 1186 1189 1193 1196 1199 1203 1209 1214 1219 1224 1229
1329 1329 1329 1329 1328 1328 1328 1326 1324 1323 1321 1319 1317 1315 1313 1312 1310 1308 1306 1303 1299 1296 1292 1287 1282 1277 1271 1267 1265 1264 1259 1254 1248 1242 1237 1231 1226 1221 1217 1212 1208 1205 1203 1201 1197 1194 1190 1187 1183 1180 1177 1174 1170 1167 1165 1164 1162 1161 1159 1159 1159 1160 1160 1160 1160 1162 1164 1165 1166 1168 1171 1174 1178 1181 1184 1186 1189 1193 1197 1201 1206 1211 1216 1222 1226
1327 1328 1328 1328 1328 1327 1327 1325 1323 1322 1320 1318 1316 1314 1313 1312 1310 1308 1306 1303 1300 1297 1293 1288 1284 1280 1274 1270 1268 1265 1260 1252 1246 1242 1238 1234 1230 1226 1222 1216 1211 1208 1206 1204 1200 1197 1194 1190 1186 1183 1180 1177 1174 1170 1167 1165 1163 1161 1160 1159 1158 1159 1160 1159 1159 1160 1162 1163 1165 1166 1169 1172 1175 1178 1181 1184 1187 1190 1194 1198 1203 1207 1212 1217 1220
1326 1327 1327 1327 1327 1326 1325 1324 1322 1321 1320 1318 1316 1314 1312 1311 1309 1308 1306 1304 1301 1298 1294 1290 1286 1282 1278 1274 1271 1268 1262 1256 1252 1248 1243 1239 1235 1231 1227 1221 1216 1212 1209 1207 1204 1200 1197 1194 1190 1186 1183 1180 1176 1173 1170 1167 1164 1162 1160 1159 1158 1158 1158 1157 1157 1157 1159 1161 1163 1165 1167 1170 1173 1177 1179 1182 1185 1188 1191 1194 1199 1204 1208 1212 1216
1325 1325 1325 1326 1326 1325 1323 1322 1321 1320 1319 1317 1315 1313 1312 1310 1309 1308 1307 1304 1302 1299 1295 1292 1289 1285 1282 1278 1276 1273 1267 1261 1258 1254 1249 1245 1241 1237 1232 1227 1221 1216 1212 1210 1207 1204 1200 1197 1194 1190 1186 1182 1179 1175 1172 1168 1165 1162 1160 1158 1157 1156 1155 1155 1154 1154 1155 1158 1161 1163 1166 1168 1171 1174 1177 1180 1183 1187 1189 1192 1196 1200 1205 1209 1214
1323 1324 1324 1325 1324 1323 1322 1321 1320 1319 1318 1316 1314 1313 1312 1310 1309 1308 1307 1305 1302 1300 1297 1294 1291 1288 1285 1281 1278 1275 1270 1265 1261 1257 1253 1250 1246 1241 1236 1232 1226 1221 1217 1214 1211 1208 1204 1200 1197 1194 1190 1185 1181 1177 1173 1170 1166 1164 1161 1158 1156 1154 1152 1151 1151 1151 1152 1154 1157 1160 1163 1166 1169 1172 1174 1177 1181 1184 1187 1190 1192 1196 1201 1206 1210
1322 1322 1323 1323 1322 1322 1321 1320 1319 1318 1317 1315 1314 1313 1311 1310 1310 1308 1307 1305 1303 1300 1297 1295 1292 1289 1286 1283 1280 1276 1272 1268 1264 1260 1256 1253 1249 1244 1240 1236 1232 1227 1222 1218 1215 1212 1208 1204 1201 1198 1194 1190 1186 1181 1177 1174 1170 1166 1163 1160 1156 1153 1151 1149 1148 1148 1149 1151 1154 1157 1160 1163 1166 1169 1172 1175 1178 1181 1184 1187 1190 1193 1197 1201 1206
1320 1321 1321 1321 1321 1320 1320 1319 1318 1318 1316 1315 1314 1313 1311 1310 1310 1309 1307 1305 1303 1300 1298 1295 1293 1290 1287 1284 1281 1277 1273 1270 1267 1263 1260 1257 1253 1249 1245 1241 1236 1231 1226 1221 1218 1215 1212 1208 1205 1201 1198 1194 1189 1185 1181 1178 1174 1169 1165 1161 1157 1153 1150 1147 1145 1145 1146 1148 1151 1154 1157 1160 1162 1165 1169 1172 1175 1178 1181 1184 1187 1190 1193 1198 1202
1319 1319 1320 1320 1319 1319 1318 1318 1318 1316 1315 1315 1314 1312 1311 1311 1310 1309 1307 1305 1303 1301 1298 1296 1293 1291 1288 1285 1282 1279 1276 1273 1270 1266 1263 1260 1257 1253 1249 1245 1240 1235 1230 1225 1220 1218 1215 1211 1207 1203 1200 1196 1192 1188 1184 1180 1177 1173 1168 1163 1159 1155 1151 1147 1145 1144 1144 1145 1148 1151 1154 1157 1159 1162 1165 1168 1172 1175 1177 1180 1183 1186 1190 1194 1197
1318 1318 1318 1318 1318 1318 1317 1317 1317 1316 1315 1314 1313 1312 1311 1311 1310 1309 1307 1305 1303 1301 1299 1297 1294 1292 1289 1286 1284 1281 1278 1276 1273 1269 1267 1264 1260 1256 1253 1249 1244 1239 1235 1229 1224 1220 1217 1214 1210 1206 1204 1200 1195 1191 1187 1183 1179 1175 1171 1166 1162 1158 1153 1149 1147 1145 1144 1144 1145 1148 1151 1154 1156 1159 1163 1166 1169 1171 1174 1177 1179 1182 1186 1190 1193
1316 1317 1317 1317 1317 1317 1317 1316 1316 1315 1315 1314 1313 1312 1311 1310 1309 1309 1307 1305 1303 1301 1299 1297 1295 1293 1290 1288 1286 1283 1281 1278 1275 1273 1270 1267 1263 1260 1256 1252 1248 1244 1239 1234 1228 1223 1220 1216 1213 1210 1207 1203 1198 1194 1190 1186 1182 1178 1174 1169 1165 1160 1156 1152 1149 1147 1146 1145 1145 1147 1149 1152 1155 1158 1161 1164 1167 1169 1172 1174 1177 1180 1183 1186 1190
1315 1315 1316 1316 1316 1316 1316 1316 1315 1315 1314 1313 1313 1312 1311 1310 1310 1309 1307 1305 1304 1302 1300 1298 1296 1294 1292 1290 1287 1285 1283 1281 1278 1275 1273 1269 1266 1263 1260 1256 1252 1248 1243 1238 1232 1227 1223 1220 1216 1213 1209 1206 1202 1198 1194 1190 1186 1181 1177 1173 1169 1164 1160 1155 1151 1149 1148 1147 1147 1148 1149 1151 1154 1156 1159 1162 1165 1167 1169 1172 1174 1177 1181 1185 1188
1314 1314 1314 1315 1315 1315 1315 1315 1314 1314 1314 1313 1312 1312 1311 1310 1310 1308 1307 1305 1304 1302 1300 1299 1297 1295 1293 1291 1289 1287 1285 1282 1280 1278 1275 1272 1269 1266 1263 1260 1256 1251 1247 1242 1236 1232 1228 1224 1221 1216 1213 1210 1207 1202 1198 1194 1190 1186 1181 1178 1174 1169 1163 1158 1155 1153 1151 1150 1150 1150 1150 1151 1152 1155 1157 1160 1163 1166 1168 1170 1173 1175 1179 1182 1186
1313 1313 1313 1314 1314 1314 1314 1314 1314 1313 1313 1312 1312 1311 1311 1310 1310 1309 1307 1306 1304 1303 1301 1299 1297 1296 1294 1292 1290 1289 1286 1284 1282 1279 1277 1274 1272 1269 1266 1263 1259 1254 1250 1246 1242 1237 1233 1229 1225 1221 1217 1214 1211 1208 1203 1199 1196 1192 1188 1184 1179 1173 1168 1163 1160 1157 1156 1154 1153 1153 1152 1151 1152 1153 1155 1158 1161 1164 1166 1169 1172 1174 1177 1180 1184
1312 1312 1312 1313 1313 1313 1313 1313 1313 1313 1312 1312 1311 1311 1311 1310 1310 1309 1307 1306 1304 1303 1302 1300 1298 1297 1295 1293 1292 1290 1288 1285 1283 1281 1279 1276 1274 1271 1268 1265 1262 1258 1255 1252 1248 1243 1238 1234 1230 1226 1222 1218 1216 1213 1209 1205 1202 1198 1194 1190 1184 1179 1174 1169 1166 1164 1162 1160 1158 1157 1156 1154 1153 1154 1155 1158 1160 1162 1165 1167 1170 1173 1176 1179 1182